XNO6701 LPPT-EGKK

Flight info

Callsign XNO6701
Flight time 2h 13m
Altitude 34000
Route IXIDA DCT RIVRO DCT TOSDI N745 ZMR N873 DELOG DCT ERCOZ DCT BADUR DCT FEJAC DCT JSY DCT REVTU UP88 VASUX
Aircraft A320/M-SDE3FGHIRWY/LB1

Departure

Time 2026-05-07 11:59
Airport Lisbon Humberto Delgado Airport (LPPT)

Arrival

Time 2026-05-07 14:12
Airport London Gatwick Airport (EGKK)
Time Latitude Longitude Altitude Speed Heading
2026-05-07 11:29 38.76982 -9.13077 354 ft 0 kts 79°
2026-05-07 11:34 38.76982 -9.13078 354 ft 0 kts 79°
2026-05-07 11:49 38.76982 -9.13082 351 ft 3 kts 78°
2026-05-07 11:49 38.76976 -9.13116 355 ft 4 kts 75°
2026-05-07 11:50 38.76970 -9.13149 357 ft 4 kts 98°
2026-05-07 11:50 38.76975 -9.13165 359 ft 0 kts 169°
2026-05-07 11:53 38.76974 -9.13165 356 ft 2 kts 169°
2026-05-07 11:53 38.76946 -9.13158 353 ft 4 kts 169°
2026-05-07 11:54 38.76904 -9.13146 359 ft 10 kts 168°
2026-05-07 11:54 38.76841 -9.13129 354 ft 9 kts 168°
2026-05-07 11:54 38.76785 -9.13154 357 ft 11 kts 243°
2026-05-07 11:54 38.76767 -9.13255 357 ft 13 kts 258°
2026-05-07 11:55 38.76738 -9.13379 359 ft 16 kts 238°
2026-05-07 11:55 38.76658 -9.13481 357 ft 17 kts 246°
2026-05-07 11:55 38.76632 -9.13630 356 ft 18 kts 259°
2026-05-07 11:55 38.76607 -9.13787 351 ft 19 kts 257°
2026-05-07 11:56 38.76581 -9.13945 354 ft 16 kts 259°
2026-05-07 11:56 38.76526 -9.14064 351 ft 12 kts 225°
2026-05-07 11:56 38.76496 -9.14153 355 ft 9 kts 269°
2026-05-07 11:56 38.76515 -9.14234 358 ft 10 kts 292°
2026-05-07 11:57 38.76546 -9.14324 359 ft 12 kts 294°
2026-05-07 11:57 38.76592 -9.14412 354 ft 12 kts 344°
2026-05-07 11:57 38.76634 -9.14394 359 ft 0 kts 24°
2026-05-07 11:58 38.76683 -9.14366 358 ft 22 kts 22°
2026-05-07 11:58 38.77052 -9.14171 360 ft 91 kts 22°
2026-05-07 11:58 38.77814 -9.13764 358 ft 145 kts 22°
2026-05-07 11:58 38.78852 -9.13196 582 ft 169 kts 19°
2026-05-07 11:59 38.79943 -9.12586 1267 ft 173 kts 20°
2026-05-07 11:59 38.81052 -9.11990 1979 ft 173 kts 21°
2026-05-07 11:59 38.82159 -9.11250 2447 ft 190 kts 28°
2026-05-07 11:59 38.83359 -9.10338 2745 ft 212 kts 28°
2026-05-07 12:00 38.84682 -9.09321 3084 ft 233 kts 30°
2026-05-07 12:00 38.86143 -9.08193 3464 ft 256 kts 30°
2026-05-07 12:00 38.87676 -9.07004 4150 ft 265 kts 31°
2026-05-07 12:00 38.89266 -9.05761 4963 ft 270 kts 34°
2026-05-07 12:01 38.90722 -9.04206 5762 ft 275 kts 43°
2026-05-07 12:01 38.92151 -9.02535 6571 ft 280 kts 44°
2026-05-07 12:01 38.93603 -9.00837 7384 ft 284 kts 43°
2026-05-07 12:01 38.95075 -8.99118 8182 ft 288 kts 43°
2026-05-07 12:02 38.96568 -8.97374 8993 ft 292 kts 43°
2026-05-07 12:02 38.98083 -8.95606 9767 ft 296 kts 43°
2026-05-07 12:02 38.99612 -8.93828 10302 ft 308 kts 43°
2026-05-07 12:02 39.01259 -8.91906 10504 ft 332 kts 43°
2026-05-07 12:03 39.03027 -8.89839 10676 ft 354 kts 43°
2026-05-07 12:03 39.04879 -8.87675 11149 ft 364 kts 43°
2026-05-07 12:03 39.06765 -8.85472 11784 ft 368 kts 42°
2026-05-07 12:03 39.08671 -8.83244 12457 ft 372 kts 42°
2026-05-07 12:04 39.10594 -8.80991 13139 ft 376 kts 42°
2026-05-07 12:04 39.12504 -8.78744 13811 ft 378 kts 41°
2026-05-07 12:04 39.14455 -8.76449 14420 ft 381 kts 41°
2026-05-07 12:04 39.16417 -8.74133 15024 ft 384 kts 43°
2026-05-07 12:05 39.18237 -8.71592 15620 ft 387 kts 47°
2026-05-07 12:05 39.20021 -8.68977 16202 ft 390 kts 47°
2026-05-07 12:05 39.21819 -8.66341 16777 ft 393 kts 47°
2026-05-07 12:05 39.23633 -8.63683 17327 ft 396 kts 47°
2026-05-07 12:06 39.25459 -8.61006 17879 ft 399 kts 47°
2026-05-07 12:06 39.27301 -8.58306 18385 ft 402 kts 46°
2026-05-07 12:06 39.29129 -8.55622 18831 ft 405 kts 46°
2026-05-07 12:06 39.30996 -8.52880 19286 ft 408 kts 46°
2026-05-07 12:07 39.32874 -8.50114 19740 ft 411 kts 46°
2026-05-07 12:07 39.34766 -8.47321 20191 ft 414 kts 46°
2026-05-07 12:07 39.36667 -8.44512 20636 ft 417 kts 45°
2026-05-07 12:07 39.38583 -8.41684 21073 ft 420 kts 45°
2026-05-07 12:08 39.40516 -8.38834 21516 ft 423 kts 45°
2026-05-07 12:08 39.42461 -8.35967 21932 ft 426 kts 45°
2026-05-07 12:08 39.44391 -8.33117 22364 ft 428 kts 45°
2026-05-07 12:08 39.46354 -8.30208 22780 ft 431 kts 44°
2026-05-07 12:09 39.48331 -8.27271 23182 ft 434 kts 44°
2026-05-07 12:09 39.50315 -8.24319 23558 ft 436 kts 44°
2026-05-07 12:09 39.52314 -8.21346 23896 ft 439 kts 44°
2026-05-07 12:09 39.54325 -8.18358 24226 ft 441 kts 44°
2026-05-07 12:10 39.56347 -8.15353 24561 ft 443 kts 44°
2026-05-07 12:10 39.57691 -8.13353 24767 ft 445 kts 44°
2026-05-07 12:10 39.60391 -8.09330 25205 ft 448 kts 44°
2026-05-07 12:10 39.62441 -8.06271 25523 ft 450 kts 44°
2026-05-07 12:11 39.64498 -8.03198 25843 ft 453 kts 43°
2026-05-07 12:11 39.66586 -8.00127 26160 ft 454 kts 41°
2026-05-07 12:11 39.68753 -7.97147 26471 ft 454 kts 40°
2026-05-07 12:11 39.70224 -7.95213 26677 ft 455 kts 39°
2026-05-07 12:12 39.72482 -7.92324 26971 ft 456 kts 38°
2026-05-07 12:12 39.74760 -7.89442 27259 ft 458 kts 38°
2026-05-07 12:12 39.77042 -7.86538 27535 ft 461 kts 38°
2026-05-07 12:12 39.80059 -7.82633 27884 ft 463 kts 39°
2026-05-07 12:13 39.81592 -7.80623 28050 ft 464 kts 39°
2026-05-07 12:13 39.83831 -7.77662 28344 ft 466 kts 39°
2026-05-07 12:13 39.86105 -7.74640 28626 ft 468 kts 39°
2026-05-07 12:13 39.88386 -7.71610 28903 ft 469 kts 39°
2026-05-07 12:14 39.90666 -7.68584 29326 ft 468 kts 38°
2026-05-07 12:14 39.92941 -7.65564 29708 ft 466 kts 38°
2026-05-07 12:14 39.95946 -7.61575 30180 ft 465 kts 38°
2026-05-07 12:14 39.98207 -7.58570 30495 ft 465 kts 38°
2026-05-07 12:15 39.99737 -7.56537 30689 ft 464 kts 38°
2026-05-07 12:15 40.01973 -7.53571 30976 ft 464 kts 38°
2026-05-07 12:15 40.04237 -7.50571 31260 ft 464 kts 38°
2026-05-07 12:15 40.06502 -7.47564 31562 ft 464 kts 38°
2026-05-07 12:16 40.08762 -7.44554 31876 ft 464 kts 38°
2026-05-07 12:16 40.11019 -7.41542 32174 ft 464 kts 38°
2026-05-07 12:16 40.13269 -7.38533 32460 ft 464 kts 38°
2026-05-07 12:16 40.16253 -7.34535 32859 ft 463 kts 38°
2026-05-07 12:17 40.17744 -7.32537 33061 ft 463 kts 38°
2026-05-07 12:17 40.19989 -7.29525 33357 ft 463 kts 38°
2026-05-07 12:17 40.22238 -7.26508 33653 ft 463 kts 38°
2026-05-07 12:17 40.24485 -7.23491 33851 ft 463 kts 38°
2026-05-07 12:18 40.26737 -7.20465 33887 ft 464 kts 38°
2026-05-07 12:18 40.31240 -7.14411 33889 ft 463 kts 38°
2026-05-07 12:19 40.35730 -7.08356 33892 ft 463 kts 39°
2026-05-07 12:19 40.40187 -7.02324 33889 ft 463 kts 39°
2026-05-07 12:20 40.44674 -6.96248 33890 ft 464 kts 39°
2026-05-07 12:20 40.49160 -6.90159 33896 ft 464 kts 40°
2026-05-07 12:21 40.53641 -6.84069 33898 ft 463 kts 40°
2026-05-07 12:21 40.58086 -6.78008 33900 ft 463 kts 40°
2026-05-07 12:22 40.62557 -6.71918 33886 ft 462 kts 39°
2026-05-07 12:22 40.67237 -6.66164 33890 ft 459 kts 36°
2026-05-07 12:23 40.72070 -6.60691 33894 ft 458 kts 35°
2026-05-07 12:23 40.76888 -6.55177 33898 ft 459 kts 36°
2026-05-07 12:24 40.81622 -6.49604 33908 ft 459 kts 37°
2026-05-07 12:24 40.86369 -6.43959 33911 ft 459 kts 37°
2026-05-07 12:25 40.91117 -6.38320 33910 ft 459 kts 37°
2026-05-07 12:25 40.95867 -6.32688 33915 ft 458 kts 37°
2026-05-07 12:26 41.00575 -6.27095 33907 ft 458 kts 37°
2026-05-07 12:26 41.05308 -6.21461 33902 ft 457 kts 37°
2026-05-07 12:27 41.10045 -6.15816 33901 ft 458 kts 38°
2026-05-07 12:27 41.14771 -6.10152 33908 ft 458 kts 38°
2026-05-07 12:28 41.19470 -6.04511 33908 ft 458 kts 38°
2026-05-07 12:28 41.24205 -5.98832 33903 ft 459 kts 38°
2026-05-07 12:29 41.28939 -5.93135 33904 ft 459 kts 38°
2026-05-07 12:29 41.33674 -5.87426 33894 ft 460 kts 39°
2026-05-07 12:30 41.38381 -5.81743 33888 ft 460 kts 39°
2026-05-07 12:30 41.43117 -5.76009 33890 ft 461 kts 39°
2026-05-07 12:31 41.47858 -5.70254 33888 ft 461 kts 39°
2026-05-07 12:31 41.52732 -5.64724 33889 ft 458 kts 30°
2026-05-07 12:32 41.58377 -5.60956 33880 ft 453 kts 20°
2026-05-07 12:32 41.64161 -5.57706 33879 ft 454 kts 20°
2026-05-07 12:33 41.72911 -5.52764 33881 ft 456 kts 20°
2026-05-07 12:33 41.78759 -5.49449 33885 ft 457 kts 20°
2026-05-07 12:34 41.84579 -5.46143 33884 ft 458 kts 20°
2026-05-07 12:34 41.90443 -5.42806 33886 ft 458 kts 21°
2026-05-07 12:35 41.96321 -5.39465 33884 ft 459 kts 21°
2026-05-07 12:35 42.02205 -5.36113 33884 ft 460 kts 21°
2026-05-07 12:36 42.08059 -5.32765 33886 ft 460 kts 21°
2026-05-07 12:36 42.13956 -5.29381 33886 ft 461 kts 21°
2026-05-07 12:37 42.19865 -5.25990 33888 ft 462 kts 21°
2026-05-07 12:37 42.25783 -5.22589 33887 ft 463 kts 21°
2026-05-07 12:38 42.31668 -5.19193 33891 ft 463 kts 21°
2026-05-07 12:38 42.37604 -5.15765 33893 ft 464 kts 21°
2026-05-07 12:39 42.43544 -5.12330 33893 ft 465 kts 22°
2026-05-07 12:39 42.49494 -5.08872 33893 ft 465 kts 22°
2026-05-07 12:40 42.55402 -5.05431 33896 ft 466 kts 22°
2026-05-07 12:40 42.61357 -5.01962 33898 ft 466 kts 22°
2026-05-07 12:41 42.67318 -4.98482 33901 ft 466 kts 22°
2026-05-07 12:41 42.73281 -4.94997 33898 ft 467 kts 22°
2026-05-07 12:42 42.79208 -4.91518 33894 ft 467 kts 22°
2026-05-07 12:42 42.85181 -4.88003 33891 ft 468 kts 22°
2026-05-07 12:43 42.91172 -4.84477 33888 ft 469 kts 22°
2026-05-07 12:43 42.97163 -4.80948 33894 ft 470 kts 22°
2026-05-07 12:44 43.03162 -4.77399 33888 ft 470 kts 22°
2026-05-07 12:44 43.09127 -4.73861 33891 ft 471 kts 22°
2026-05-07 12:45 43.15143 -4.70290 33893 ft 472 kts 23°
2026-05-07 12:45 43.21174 -4.66702 33893 ft 473 kts 23°
2026-05-07 12:46 43.27171 -4.63124 33890 ft 473 kts 23°
2026-05-07 12:46 43.33217 -4.59514 33891 ft 474 kts 23°
2026-05-07 12:47 43.39273 -4.55885 33890 ft 475 kts 23°
2026-05-07 12:47 43.45333 -4.52236 33894 ft 476 kts 23°
2026-05-07 12:48 43.51397 -4.48587 33897 ft 476 kts 23°
2026-05-07 12:48 43.57427 -4.44951 33901 ft 476 kts 23°
2026-05-07 12:49 43.63490 -4.41278 33902 ft 476 kts 23°
2026-05-07 12:49 43.69556 -4.37602 33902 ft 476 kts 23°
2026-05-07 12:50 43.75624 -4.33928 33905 ft 476 kts 23°
2026-05-07 12:50 43.81653 -4.30272 33907 ft 476 kts 23°
2026-05-07 12:51 43.87719 -4.26579 33913 ft 476 kts 23°
2026-05-07 12:51 43.93790 -4.22867 33917 ft 477 kts 23°
2026-05-07 12:52 43.99859 -4.19133 33920 ft 477 kts 24°
2026-05-07 12:52 44.05941 -4.15399 33922 ft 478 kts 24°
2026-05-07 12:53 44.11991 -4.11681 33930 ft 479 kts 24°
2026-05-07 12:53 44.18084 -4.07918 33938 ft 479 kts 24°
2026-05-07 12:54 44.24183 -4.04145 33943 ft 480 kts 24°
2026-05-07 12:54 44.30303 -4.00418 33947 ft 480 kts 20°
2026-05-07 12:55 44.36742 -3.98405 33944 ft 477 kts
2026-05-07 12:55 44.43366 -3.97830 33951 ft 477 kts
2026-05-07 12:56 44.49995 -3.97229 33951 ft 477 kts
2026-05-07 12:56 44.56625 -3.96613 33961 ft 477 kts
2026-05-07 12:57 44.63206 -3.96012 33965 ft 477 kts
2026-05-07 12:57 44.69830 -3.95420 33973 ft 477 kts
2026-05-07 12:58 44.76448 -3.94828 33977 ft 477 kts
2026-05-07 12:58 44.83067 -3.94226 33987 ft 477 kts
2026-05-07 12:59 44.89640 -3.93634 33995 ft 476 kts
2026-05-07 12:59 44.96251 -3.93035 33998 ft 476 kts
2026-05-07 13:00 45.02853 -3.92425 34003 ft 475 kts
2026-05-07 13:00 45.09446 -3.91809 34003 ft 474 kts
2026-05-07 13:01 45.16028 -3.91202 34005 ft 474 kts
2026-05-07 13:01 45.22554 -3.90605 34005 ft 473 kts
2026-05-07 13:02 45.29111 -3.90003 34004 ft 472 kts
2026-05-07 13:02 45.35657 -3.89401 34008 ft 471 kts
2026-05-07 13:03 45.42195 -3.88795 34009 ft 471 kts
2026-05-07 13:03 45.48688 -3.88191 34006 ft 470 kts
2026-05-07 13:04 45.55213 -3.87580 33998 ft 470 kts
2026-05-07 13:04 45.61739 -3.86974 34005 ft 470 kts
2026-05-07 13:05 45.68266 -3.86364 34007 ft 470 kts
2026-05-07 13:05 45.74788 -3.85744 34014 ft 469 kts
2026-05-07 13:06 45.81264 -3.85140 34011 ft 469 kts
2026-05-07 13:06 45.87775 -3.84528 34016 ft 469 kts
2026-05-07 13:07 45.94282 -3.83900 34023 ft 469 kts
2026-05-07 13:07 46.00788 -3.83291 34022 ft 468 kts
2026-05-07 13:08 46.07250 -3.82673 34021 ft 468 kts
2026-05-07 13:08 46.13740 -3.82055 34017 ft 467 kts
2026-05-07 13:09 46.20233 -3.81439 34014 ft 467 kts
2026-05-07 13:09 46.26712 -3.80820 34011 ft 467 kts
2026-05-07 13:10 46.33147 -3.80199 34012 ft 467 kts
2026-05-07 13:10 46.39626 -3.79570 34012 ft 466 kts
2026-05-07 13:11 46.46100 -3.78952 34014 ft 466 kts
2026-05-07 13:11 46.52576 -3.78336 34012 ft 466 kts
2026-05-07 13:12 46.59003 -3.77712 34009 ft 466 kts
2026-05-07 13:12 46.65475 -3.77087 34014 ft 466 kts
2026-05-07 13:13 46.71947 -3.76458 34015 ft 466 kts
2026-05-07 13:13 46.78413 -3.75825 34013 ft 466 kts
2026-05-07 13:14 46.84836 -3.75190 34018 ft 466 kts
2026-05-07 13:14 46.91300 -3.74558 34015 ft 466 kts
2026-05-07 13:15 46.97766 -3.73924 34011 ft 466 kts
2026-05-07 13:15 47.04233 -3.73283 34010 ft 466 kts
2026-05-07 13:16 47.10693 -3.72636 34010 ft 465 kts
2026-05-07 13:16 47.17116 -3.72012 34008 ft 465 kts
2026-05-07 13:17 47.23576 -3.71372 34007 ft 465 kts
2026-05-07 13:17 47.30040 -3.70734 34008 ft 465 kts
2026-05-07 13:18 47.36500 -3.70090 34008 ft 465 kts
2026-05-07 13:18 47.42916 -3.69446 34004 ft 465 kts
2026-05-07 13:19 47.49378 -3.68803 34004 ft 465 kts
2026-05-07 13:19 47.55837 -3.68149 34005 ft 465 kts
2026-05-07 13:20 47.62298 -3.67502 34010 ft 465 kts
2026-05-07 13:20 47.68716 -3.66853 34013 ft 465 kts
2026-05-07 13:21 47.75182 -3.66194 34012 ft 465 kts
2026-05-07 13:21 47.81641 -3.65538 34012 ft 466 kts
2026-05-07 13:22 47.88108 -3.64884 34008 ft 466 kts
2026-05-07 13:22 47.94577 -3.64232 34011 ft 466 kts
2026-05-07 13:23 48.00998 -3.63580 34002 ft 466 kts
2026-05-07 13:23 48.07464 -3.62918 33992 ft 466 kts
2026-05-07 13:24 48.13935 -3.62246 33993 ft 466 kts
2026-05-07 13:24 48.20404 -3.61571 33989 ft 466 kts
2026-05-07 13:25 48.26828 -3.60797 33979 ft 467 kts
2026-05-07 13:25 48.32966 -3.57756 33980 ft 467 kts 28°
2026-05-07 13:26 48.38124 -3.51923 33978 ft 464 kts 48°
2026-05-07 13:26 48.42402 -3.44655 33983 ft 464 kts 50°
2026-05-07 13:27 48.46644 -3.37403 33981 ft 464 kts 50°
2026-05-07 13:27 48.50908 -3.30082 33984 ft 465 kts 50°
2026-05-07 13:28 48.55166 -3.22746 33999 ft 465 kts 50°
2026-05-07 13:28 48.59421 -3.15394 34008 ft 465 kts 50°
2026-05-07 13:29 48.63644 -3.08076 34008 ft 465 kts 50°
2026-05-07 13:29 48.67883 -3.00688 34011 ft 465 kts 51°
2026-05-07 13:30 48.71277 -2.92433 34007 ft 462 kts 69°
2026-05-07 13:30 48.73134 -2.83169 34009 ft 460 kts 77°
2026-05-07 13:31 48.74724 -2.73847 34003 ft 460 kts 77°
2026-05-07 13:31 48.76420 -2.64486 34013 ft 462 kts 71°
2026-05-07 13:32 48.79554 -2.55997 34006 ft 464 kts 52°
2026-05-07 13:32 48.84244 -2.49291 34007 ft 465 kts 37°
2026-05-07 13:33 48.89370 -2.43299 34005 ft 465 kts 37°
2026-05-07 13:33 48.94465 -2.37327 34024 ft 466 kts 37°
2026-05-07 13:34 49.02162 -2.28277 34038 ft 466 kts 37°
2026-05-07 13:35 49.07291 -2.22233 34041 ft 466 kts 37°
2026-05-07 13:35 49.12382 -2.16209 34048 ft 466 kts 37°
2026-05-07 13:36 49.17498 -2.10126 34051 ft 466 kts 38°
2026-05-07 13:36 49.22688 -2.04188 34052 ft 465 kts 31°
2026-05-07 13:37 49.28337 -1.99371 34049 ft 465 kts 28°
2026-05-07 13:37 49.33996 -1.94568 34048 ft 465 kts 28°
2026-05-07 13:38 49.39608 -1.89789 34044 ft 464 kts 28°
2026-05-07 13:38 49.45251 -1.84969 34041 ft 464 kts 28°
2026-05-07 13:39 49.50897 -1.80139 34045 ft 464 kts 28°
2026-05-07 13:39 49.56533 -1.75304 34047 ft 464 kts 28°
2026-05-07 13:40 49.62318 -1.71118 34051 ft 462 kts 18°
2026-05-07 13:40 49.68380 -1.67794 34053 ft 462 kts 18°
2026-05-07 13:41 49.74440 -1.64451 34058 ft 463 kts 18°
2026-05-07 13:41 49.80507 -1.61089 34047 ft 463 kts 18°
2026-05-07 13:42 49.86530 -1.57743 34047 ft 463 kts 18°
2026-05-07 13:42 49.92588 -1.54364 33945 ft 464 kts 18°
2026-05-07 13:42 49.95646 -1.52651 32763 ft 472 kts 18°
2026-05-07 13:43 49.98767 -1.50903 31458 ft 482 kts 18°
2026-05-07 13:43 50.01932 -1.49164 30676 ft 481 kts 17°
2026-05-07 13:43 50.05106 -1.47536 29714 ft 481 kts 16°
2026-05-07 13:43 50.08310 -1.45990 28611 ft 483 kts 15°
2026-05-07 13:44 50.11475 -1.44508 27662 ft 481 kts 15°
2026-05-07 13:44 50.14668 -1.43016 26960 ft 475 kts 15°
2026-05-07 13:44 50.17809 -1.41526 26249 ft 469 kts 16°
2026-05-07 13:44 50.20913 -1.40028 25556 ft 464 kts 16°
2026-05-07 13:45 50.23970 -1.38525 24878 ft 459 kts 16°
2026-05-07 13:45 50.26997 -1.37025 24215 ft 454 kts 16°
2026-05-07 13:45 50.29995 -1.35538 23537 ft 451 kts 17°
2026-05-07 13:45 50.32971 -1.34058 22832 ft 446 kts 17°
2026-05-07 13:46 50.35868 -1.32616 22246 ft 440 kts 17°
2026-05-07 13:46 50.38768 -1.31174 21649 ft 434 kts 17°
2026-05-07 13:46 50.41628 -1.29755 21089 ft 429 kts 16°
2026-05-07 13:46 50.44455 -1.28358 20541 ft 423 kts 16°
2026-05-07 13:47 50.47249 -1.26973 20019 ft 418 kts 17°
2026-05-07 13:47 50.49908 -1.25207 19517 ft 414 kts 27°
2026-05-07 13:47 50.52312 -1.22771 19017 ft 410 kts 37°
2026-05-07 13:47 50.54493 -1.19918 18529 ft 405 kts 39°
2026-05-07 13:48 50.56643 -1.17086 18008 ft 402 kts 39°
2026-05-07 13:48 50.58779 -1.14288 17509 ft 397 kts 39°
2026-05-07 13:48 50.60884 -1.11527 17012 ft 392 kts 39°
2026-05-07 13:48 50.62969 -1.08781 16521 ft 389 kts 40°
2026-05-07 13:49 50.65032 -1.06048 16024 ft 386 kts 41°
2026-05-07 13:49 50.66886 -1.03019 15494 ft 383 kts 51°
2026-05-07 13:49 50.68564 -0.99767 15000 ft 381 kts 51°
2026-05-07 13:49 50.70234 -0.96544 14478 ft 379 kts 51°
2026-05-07 13:50 50.71904 -0.93330 13957 ft 378 kts 51°
2026-05-07 13:50 50.73548 -0.90163 13743 ft 367 kts 51°
2026-05-07 13:50 50.75133 -0.87104 13620 ft 354 kts 52°
2026-05-07 13:50 50.76660 -0.84144 13460 ft 342 kts 52°
2026-05-07 13:51 50.78142 -0.81265 13203 ft 335 kts 52°
2026-05-07 13:51 50.79599 -0.78430 12887 ft 330 kts 52°
2026-05-07 13:51 50.80813 -0.75407 12566 ft 323 kts 66°
2026-05-07 13:51 50.81517 -0.72078 12260 ft 317 kts 80°
2026-05-07 13:52 50.81915 -0.68675 11953 ft 313 kts 81°
2026-05-07 13:52 50.82307 -0.65314 11643 ft 309 kts 81°
2026-05-07 13:52 50.82695 -0.61989 11343 ft 306 kts 81°
2026-05-07 13:52 50.82820 -0.60913 11237 ft 305 kts 81°
2026-05-07 13:53 50.83100 -0.58274 11001 ft 302 kts 82°
2026-05-07 13:53 50.83456 -0.55019 10705 ft 299 kts 81°
2026-05-07 13:53 50.83832 -0.51811 10413 ft 295 kts 81°
2026-05-07 13:53 50.84208 -0.48668 10129 ft 293 kts 81°
2026-05-07 13:54 50.84584 -0.45505 9818 ft 291 kts 81°
2026-05-07 13:54 50.84952 -0.42370 9491 ft 288 kts 81°
2026-05-07 13:54 50.85313 -0.39261 9161 ft 287 kts 81°
2026-05-07 13:54 50.85670 -0.36165 8847 ft 285 kts 81°
2026-05-07 13:55 50.86022 -0.33090 8532 ft 283 kts 81°
2026-05-07 13:55 50.86370 -0.30028 8220 ft 282 kts 81°
2026-05-07 13:55 50.86713 -0.26987 7908 ft 280 kts 81°
2026-05-07 13:55 50.87053 -0.23959 7604 ft 278 kts 81°
2026-05-07 13:56 50.87390 -0.20956 7302 ft 276 kts 80°
2026-05-07 13:56 50.87722 -0.17975 6982 ft 273 kts 80°
2026-05-07 13:56 50.88048 -0.15057 6763 ft 266 kts 80°
2026-05-07 13:56 50.88366 -0.12213 6541 ft 259 kts 80°
2026-05-07 13:57 50.88683 -0.09452 6299 ft 252 kts 76°
2026-05-07 13:57 50.89106 -0.07773 6145 ft 246 kts 56°
2026-05-07 13:57 50.90075 -0.06293 5955 ft 240 kts 29°
2026-05-07 13:57 50.91647 -0.05614 5721 ft 235 kts 358°
2026-05-07 13:58 50.93207 -0.06326 5486 ft 245 kts 329°
2026-05-07 13:58 50.94611 -0.08050 5257 ft 262 kts 308°
2026-05-07 13:58 50.95380 -0.10611 5023 ft 264 kts 279°
2026-05-07 13:58 50.95320 -0.13504 4793 ft 264 kts 259°
2026-05-07 13:59 50.94814 -0.16293 4550 ft 263 kts 241°
2026-05-07 13:59 50.93610 -0.18427 4317 ft 262 kts 212°
2026-05-07 13:59 50.91907 -0.19368 4100 ft 261 kts 184°
2026-05-07 13:59 50.90131 -0.18917 4001 ft 261 kts 154°
2026-05-07 14:00 50.88736 -0.17136 4007 ft 261 kts 124°
2026-05-07 14:00 50.88039 -0.14549 4005 ft 250 kts 99°
2026-05-07 14:00 50.88068 -0.11921 4004 ft 233 kts 76°
2026-05-07 14:00 50.88712 -0.09609 4005 ft 230 kts 53°
2026-05-07 14:01 50.89857 -0.07864 4008 ft 230 kts 31°
2026-05-07 14:01 50.91332 -0.06937 4005 ft 230 kts
2026-05-07 14:01 50.92924 -0.06973 4007 ft 230 kts 346°
2026-05-07 14:01 50.94387 -0.07979 4008 ft 231 kts 324°
2026-05-07 14:02 50.95498 -0.09793 4003 ft 231 kts 302°
2026-05-07 14:02 50.96238 -0.12052 4006 ft 231 kts 296°
2026-05-07 14:02 50.96958 -0.14338 4007 ft 232 kts 296°
2026-05-07 14:02 50.97682 -0.16618 4008 ft 232 kts 296°
2026-05-07 14:03 50.98372 -0.18924 4006 ft 231 kts 291°
2026-05-07 14:03 50.98853 -0.21366 3867 ft 231 kts 284°
2026-05-07 14:03 50.99243 -0.23839 3690 ft 230 kts 284°
2026-05-07 14:03 50.99633 -0.26304 3521 ft 230 kts 284°
2026-05-07 14:04 51.00025 -0.28764 3360 ft 229 kts 284°
2026-05-07 14:04 51.00417 -0.31215 3201 ft 229 kts 284°
2026-05-07 14:04 51.00810 -0.33660 3073 ft 229 kts 284°
2026-05-07 14:04 51.01198 -0.36076 3010 ft 227 kts 284°
2026-05-07 14:05 51.01582 -0.38467 3004 ft 222 kts 284°
2026-05-07 14:05 51.01960 -0.40837 3005 ft 221 kts 284°
2026-05-07 14:05 51.02338 -0.43210 3002 ft 222 kts 284°
2026-05-07 14:05 51.02715 -0.45578 3004 ft 222 kts 283°
2026-05-07 14:06 51.03092 -0.47951 3000 ft 219 kts 283°
2026-05-07 14:06 51.03453 -0.50228 2998 ft 207 kts 283°
2026-05-07 14:06 51.03826 -0.52394 2986 ft 201 kts 292°
2026-05-07 14:06 51.04675 -0.54113 2996 ft 200 kts 326°
2026-05-07 14:07 51.05943 -0.55004 2999 ft 201 kts 348°
2026-05-07 14:07 51.07330 -0.55103 2998 ft 201 kts
2026-05-07 14:07 51.08644 -0.54389 2999 ft 201 kts 31°
2026-05-07 14:07 51.09701 -0.52955 2997 ft 200 kts 53°
2026-05-07 14:08 51.10340 -0.51004 3004 ft 200 kts 76°
2026-05-07 14:08 51.10649 -0.48853 3006 ft 200 kts 78°
2026-05-07 14:08 51.10851 -0.47421 3005 ft 200 kts 78°
2026-05-07 14:08 51.11155 -0.45266 3002 ft 199 kts 78°
2026-05-07 14:09 51.11458 -0.43109 2999 ft 200 kts 78°
2026-05-07 14:09 51.11763 -0.40938 2813 ft 202 kts 78°
2026-05-07 14:09 51.12070 -0.38749 2560 ft 203 kts 78°
2026-05-07 14:09 51.12381 -0.36529 2290 ft 209 kts 77°
2026-05-07 14:10 51.12698 -0.34254 1994 ft 209 kts 79°
2026-05-07 14:10 51.13010 -0.32022 1737 ft 202 kts 78°
2026-05-07 14:10 51.13305 -0.29907 1465 ft 190 kts 79°
2026-05-07 14:10 51.13585 -0.27901 1205 ft 180 kts 79°
2026-05-07 14:11 51.13846 -0.26023 939 ft 168 kts 79°
2026-05-07 14:11 51.14090 -0.24268 714 ft 156 kts 79°
2026-05-07 14:11 51.14313 -0.22655 503 ft 143 kts 79°
2026-05-07 14:11 51.14524 -0.21141 291 ft 138 kts 79°
2026-05-07 14:12 51.14719 -0.19721 210 ft 108 kts 77°
2026-05-07 14:12 51.14821 -0.18989 208 ft 45 kts 78°
2026-05-07 14:12 51.14885 -0.18639 208 ft 23 kts 58°
2026-05-07 14:12 51.14973 -0.18456 214 ft 17 kts 52°
2026-05-07 14:13 51.15038 -0.18324 209 ft 14 kts 50°
2026-05-07 14:13 51.15076 -0.18251 208 ft 0 kts 51°